| time (UTC) | temp C | wind direction | speed KPH | gust KPH | rain 1hr cm | rain 24hr cm | rain mn cm | humidity % | barometer mb |
| 20260831080325 | 25 | 95 | 3.2 | 9.7 | 0.00 | 0.00 | 0.00 | 98 | 1016.1 |
| 20260831080039 | 25 | 95 | 4.8 | 9.7 | 0.00 | 0.00 | 0.00 | 97 | 1016.1 |
| 20260831075825 | 25 | 95 | 4.8 | 9.7 | 0.00 | 0.00 | 0.00 | 97 | 1016.1 |
| 20260831075255 | 25 | 94 | 3.2 | 6.4 | 0.00 | 0.00 | 0.00 | 97 | 1016.1 |
| 20260831074725 | 25 | 93 | 3.2 | 6.4 | 0.00 | 0.00 | 0.00 | 97 | 1016.2 |
| 20260831074401 | 25 | 89 | 3.2 | 6.4 | 0.00 | 0.00 | 0.00 | 97 | 1016.3 |
| 20260831074225 | 25 | 89 | 3.2 | 6.4 | 0.00 | 0.00 | 0.00 | 97 | 1016.3 |
| 20260831073655 | 25 | 96 | 4.8 | 6.4 | 0.00 | 0.00 | 0.00 | 97 | 1016.4 |
| 20260831073325 | 25 | 99 | 4.8 | 6.4 | 0.00 | 0.00 | 0.00 | 96 | 1016.4 |
| 20260831073155 | 25 | 99 | 4.8 | 6.4 | 0.00 | 0.00 | 0.00 | 96 | 1016.4 |
| 20260831072306 | 25 | 96 | 4.8 | 9.7 | 0.00 | 0.00 | 0.00 | 97 | 1016.4 |
| 20260831072126 | 25 | 96 | 4.8 | 9.7 | 0.00 | 0.00 | 0.00 | 97 | 1016.4 |
| 20260831071745 | 25 | 93 | 4.8 | 9.7 | 0.00 | 0.00 | 0.00 | 96 | 1016.5 |
| 20260831071555 | 25 | 93 | 4.8 | 9.7 | 0.00 | 0.00 | 0.00 | 96 | 1016.5 |
| 20260831071319 | 25 | 95 | 6.4 | 11.3 | 0.00 | 0.00 | 0.00 | 96 | 1016.4 |
| 20260831071055 | 25 | 95 | 6.4 | 11.3 | 0.00 | 0.00 | 0.00 | 96 | 1016.4 |
| 20260831070529 | 25 | 94 | 6.4 | 11.3 | 0.00 | 0.00 | 0.00 | 97 | 1016.4 |
| 20260831070025 | 25 | 90 | 4.8 | 11.3 | 0.00 | 0.00 | 0.00 | 97 | 1016.5 |
| 20260831065455 | 25 | 86 | 3.2 | 11.3 | 0.00 | 0.00 | 0.00 | 97 | 1016.5 |
| 20260831064455 | 25 | 83 | 1.6 | 4.8 | 0.00 | 0.00 | 0.00 | 97 | 1016.5 |
| 20260831062855 | 25 | 80 | 1.6 | 3.2 | 0.00 | 0.00 | 0.00 | 97 | 1016.6 |
| 20260831062355 | 25 | 84 | 1.6 | 3.2 | 0.00 | 0.00 | 0.00 | 97 | 1016.6 |
| 20260831061855 | 25 | 92 | 1.6 | 4.8 | 0.00 | 0.00 | 0.00 | 97 | 1016.6 |
| 20260831061355 | 25 | 90 | 1.6 | 4.8 | 0.00 | 0.00 | 0.00 | 97 | 1016.7 |
| 20260831060325 | 25 | 89 | 3.2 | 6.4 | 0.00 | 0.00 | 0.00 | 97 | 1016.8 |
| 20260831055755 | 25 | 94 | 3.2 | 6.4 | 0.00 | 0.00 | 0.00 | 97 | 1016.9 |
| 20260831055225 | 25 | 98 | 4.8 | 6.4 | 0.00 | 0.00 | 0.00 | 97 | 1016.8 |
| 20260831054725 | 25 | 100 | 4.8 | 9.7 | 0.00 | 0.00 | 0.00 | 97 | 1016.9 |
| 20260831053126 | 25 | 100 | 3.2 | 6.4 | 0.00 | 0.00 | 0.00 | 97 | 1017.2 |
| 20260831052555 | 25 | 101 | 3.2 | 4.8 | 0.00 | 0.00 | 0.00 | 97 | 1017.3 |
| 20260831052025 | 25 | 95 | 3.2 | 6.4 | 0.00 | 0.00 | 0.00 | 97 | 1017.3 |
| 20260831051526 | 25 | 92 | 3.2 | 9.7 | 0.00 | 0.00 | 0.00 | 97 | 1017.3 |
| 20260831051025 | 25 | 98 | 4.8 | 9.7 | 0.00 | 0.00 | 0.00 | 97 | 1017.4 |
| 20260831045925 | 25 | 102 | 4.8 | 9.7 | 0.00 | 0.00 | 0.00 | 96 | 1017.4 |
| 20260831045355 | 25 | 99 | 4.8 | 9.7 | 0.00 | 0.00 | 0.00 | 96 | 1017.4 |
| 20260831044855 | 25 | 94 | 4.8 | 9.7 | 0.00 | 0.00 | 0.00 | 96 | 1017.4 |
| 20260831044355 | 25 | 95 | 4.8 | 9.7 | 0.00 | 0.00 | 0.00 | 96 | 1017.4 |
| 20260831043825 | 25 | 96 | 3.2 | 9.7 | 0.00 | 0.00 | 0.00 | 96 | 1017.4 |
| 20260831043325 | 25 | 96 | 3.2 | 6.4 | 0.00 | 0.00 | 0.00 | 96 | 1017.4 |
| 20260831042825 | 25 | 98 | 1.6 | 6.4 | 0.00 | 0.00 | 0.00 | 96 | 1017.6 |
| 20260831041755 | 25 | 91 | 1.6 | 3.2 | 0.00 | 0.00 | 0.00 | 95 | 1017.5 |
| 20260831041255 | 25 | 100 | 1.6 | 4.8 | 0.00 | 0.00 | 0.00 | 95 | 1017.6 |
| 20260831040725 | 25 | 103 | 1.6 | 4.8 | 0.00 | 0.00 | 0.00 | 95 | 1017.6 |
| 20260831040155 | 25 | 83 | 0.0 | 1.6 | 0.00 | 0.00 | 0.00 | 96 | 1017.6 |
| 20260831035655 | 25 | 83 | 1.6 | 3.2 | 0.00 | 0.00 | 0.00 | 96 | 1017.6 |
| 20260831034555 | 25 | 99 | 1.6 | 6.4 | 0.00 | 0.00 | 0.00 | 96 | 1017.4 |
| 20260831034025 | 25 | 98 | 1.6 | 9.7 | 0.00 | 0.00 | 0.00 | 96 | 1017.6 |
| 20260831033455 | 25 | 87 | 1.6 | 9.7 | 0.00 | 0.00 | 0.00 | 96 | 1017.7 |
| 20260831031855 | 25 | 222 | 0.0 | 1.6 | 0.00 | 0.00 | 0.00 | 96 | 1017.6 |
| 20260831031325 | 25 | 222 | 0.0 | 1.6 | 0.00 | 0.00 | 0.00 | 95 | 1017.7 |
| 20260831030825 | 25 | 0 | 0.0 | 0.0 | 0.00 | 0.00 | 0.00 | 95 | 1017.7 |
| 20260831030325 | 25 | 0 | 0.0 | 0.0 | 0.00 | 0.00 | 0.00 | 95 | 1017.6 |
| 20260831025755 | 25 | 222 | 0.0 | 1.6 | 0.00 | 0.00 | 0.00 | 95 | 1017.5 |
| 20260831024754 | 25 | 222 | 0.0 | 1.6 | 0.00 | 0.00 | 0.00 | 95 | 1017.7 |
| 20260831024224 | 25 | 0 | 0.0 | 0.0 | 0.00 | 0.00 | 0.00 | 95 | 1017.6 |
| 20260831023655 | 25 | 0 | 0.0 | 0.0 | 0.00 | 0.00 | 0.00 | 95 | 1017.7 |
| 20260831023637 | 25 | 0 | 0.0 | 0.0 | 0.00 | 0.00 | 0.00 | 95 | 1017.7 |
| 20260831023155 | 25 | 0 | 0.0 | 0.0 | 0.00 | 0.00 | 0.00 | 95 | 1017.7 |
| 20260831021719 | 25 | 222 | 0.0 | 1.6 | 0.00 | 0.00 | 0.00 | 94 | 1017.8 |
| 20260831021555 | 25 | 222 | 0.0 | 1.6 | 0.00 | 0.00 | 0.00 | 94 | 1017.8 |
| 20260831021024 | 25 | 222 | 0.0 | 1.6 | 0.00 | 0.00 | 0.00 | 94 | 1017.8 |
| 20260831020455 | 25 | 0 | 0.0 | 1.6 | 0.00 | 0.00 | 0.00 | 94 | 1017.8 |
| 20260831015955 | 25 | 222 | 0.0 | 1.6 | 0.00 | 0.00 | 0.00 | 93 | 1018.0 |
| 20260831015424 | 25 | 222 | 0.0 | 1.6 | 0.00 | 0.00 | 0.00 | 93 | 1018.0 |
| 20260831015140 | 25 | 222 | 0.0 | 1.6 | 0.00 | 0.00 | 0.00 | 93 | 1017.9 |
| 20260831014924 | 25 | 222 | 0.0 | 1.6 | 0.00 | 0.00 | 0.00 | 93 | 1017.9 |
| 20260831014711 | 25 | 222 | 0.0 | 1.6 | 0.00 | 0.00 | 0.00 | 92 | 1018.0 |
| 20260831014425 | 25 | 222 | 0.0 | 1.6 | 0.00 | 0.00 | 0.00 | 92 | 1018.0 |
| 20260831013925 | 25 | 222 | 0.0 | 1.6 | 0.00 | 0.00 | 0.00 | 92 | 1017.9 |
| 20260831013634 | 25 | 222 | 1.6 | 3.2 | 0.00 | 0.00 | 0.00 | 92 | 1017.9 |
| 20260831013355 | 25 | 222 | 1.6 | 3.2 | 0.00 | 0.00 | 0.00 | 92 | 1017.9 |
| 20260831012825 | 25 | 222 | 0.0 | 3.2 | 0.00 | 0.00 | 0.00 | 92 | 1017.9 |
| 20260831012254 | 25 | 222 | 0.0 | 1.6 | 0.00 | 0.00 | 0.00 | 91 | 1017.9 |
| 20260831011754 | 26 | 222 | 1.6 | 1.6 | 0.00 | 0.00 | 0.00 | 92 | 1018.0 |
| 20260831010725 | 26 | 222 | 0.0 | 1.6 | 0.00 | 0.00 | 0.00 | 93 | 1017.9 |
| 20260831010530 | 26 | 222 | 0.0 | 1.6 | 0.00 | 0.00 | 0.00 | 93 | 1017.8 |
| 20260831010225 | 26 | 222 | 0.0 | 1.6 | 0.00 | 0.00 | 0.00 | 93 | 1017.8 |
| 20260831010002 | 26 | 222 | 0.0 | 1.6 | 0.00 | 0.00 | 0.00 | 92 | 1017.7 |
| 20260831005724 | 26 | 222 | 0.0 | 1.6 | 0.00 | 0.00 | 0.00 | 92 | 1017.7 |
| 20260831005155 | 26 | 222 | 0.0 | 1.6 | 0.00 | 0.00 | 0.00 | 92 | 1017.7 |
| 20260831004953 | 26 | 222 | 0.0 | 1.6 | 0.00 | 0.00 | 0.00 | 92 | 1017.7 |
| 20260831004655 | 26 | 222 | 0.0 | 1.6 | 0.00 | 0.00 | 0.00 | 92 | 1017.7 |
| 20260831002555 | 26 | 222 | 0.0 | 1.6 | 0.00 | 0.00 | 0.00 | 91 | 1017.4 |
| 20260831002025 | 26 | 222 | 0.0 | 1.6 | 0.00 | 0.00 | 0.00 | 91 | 1017.4 |
| 20260831001911 | 26 | 222 | 0.0 | 1.6 | 0.00 | 0.00 | 0.00 | 90 | 1017.3 |
| 20260831001524 | 26 | 222 | 0.0 | 1.6 | 0.00 | 0.00 | 0.00 | 90 | 1017.3 |
| 20260831001025 | 26 | 222 | 0.0 | 1.6 | 0.00 | 0.03 | 0.00 | 90 | 1017.2 |
| 20260831000926 | 26 | 222 | 0.0 | 1.6 | 0.00 | 0.03 | 0.00 | 89 | 1017.1 |
| 20260831000525 | 26 | 222 | 0.0 | 1.6 | 0.00 | 0.03 | 0.00 | 89 | 1017.1 |
| 20260831000313 | 26 | 222 | 0.0 | 1.6 | 0.00 | 0.03 | 0.00 | 89 | 1017.0 |
| 20260831000024 | 26 | 222 | 0.0 | 1.6 | 0.00 | 0.03 | 0.00 | 89 | 1017.0 |
| 20260830235525 | 26 | 222 | 0.0 | 1.6 | 0.00 | 0.03 | 0.00 | 89 | 1017.0 |
| 20260830234231 | 26 | 222 | 0.0 | 1.6 | 0.00 | 0.05 | 0.00 | 89 | 1016.7 |
| 20260830233955 | 26 | 222 | 0.0 | 1.6 | 0.00 | 0.05 | 0.00 | 89 | 1016.7 |
| 20260830233425 | 26 | 222 | 0.0 | 1.6 | 0.00 | 0.08 | 0.00 | 88 | 1016.7 |
| 20260830232926 | 26 | 222 | 0.0 | 1.6 | 0.00 | 0.08 | 0.00 | 88 | 1016.8 |
| 20260830232355 | 26 | 222 | 0.0 | 1.6 | 0.00 | 0.08 | 0.00 | 89 | 1016.8 |
| 20260830232138 | 26 | 222 | 0.0 | 1.6 | 0.00 | 0.10 | 0.00 | 89 | 1016.8 |
| 20260830231825 | 26 | 222 | 0.0 | 1.6 | 0.00 | 0.10 | 0.00 | 89 | 1016.8 |
| 20260830230225 | 26 | 0 | 0.0 | 3.2 | 0.00 | 0.10 | 0.00 | 89 | 1016.8 |
| 20260830223024 | 26 | 237 | 3.2 | 6.4 | 0.00 | 0.20 | 0.00 | 88 | 1016.8 |
| 20260830222524 | 27 | 226 | 1.6 | 6.4 | 0.00 | 0.23 | 0.00 | 88 | 1016.8 |
| 20260830222024 | 27 | 188 | 1.6 | 4.8 | 0.00 | 0.25 | 0.00 | 88 | 1016.9 |
| 20260830221525 | 27 | 196 | 1.6 | 4.8 | 0.00 | 0.30 | 0.00 | 88 | 1016.8 |
| 20260830221024 | 27 | 184 | 1.6 | 4.8 | 0.00 | 0.30 | 0.00 | 88 | 1016.7 |
| 20260830220144 | 27 | 168 | 1.6 | 8.0 | 0.00 | 0.33 | 0.00 | 87 | 1016.5 |
| 20260830215924 | 27 | 168 | 1.6 | 8.0 | 0.00 | 0.33 | 0.00 | 87 | 1016.5 |
| 20260830215712 | 27 | 176 | 1.6 | 8.0 | 0.00 | 0.33 | 0.00 | 87 | 1016.6 |
| 20260830215424 | 27 | 176 | 1.6 | 8.0 | 0.00 | 0.33 | 0.00 | 87 | 1016.6 |
| 20260830215146 | 27 | 177 | 3.2 | 8.0 | 0.00 | 0.33 | 0.00 | 87 | 1016.6 |
| 20260830214924 | 27 | 177 | 3.2 | 8.0 | 0.00 | 0.33 | 0.00 | 87 | 1016.6 |
| 20260830214713 | 27 | 194 | 3.2 | 8.0 | 0.00 | 0.33 | 0.00 | 87 | 1016.6 |
| 20260830214426 | 27 | 194 | 3.2 | 8.0 | 0.00 | 0.33 | 0.00 | 87 | 1016.6 |
| 20260830213354 | 27 | 187 | 4.8 | 17.7 | 0.00 | 0.36 | 0.00 | 84 | 1016.5 |
| 20260830213130 | 27 | 190 | 4.8 | 17.7 | 0.00 | 0.36 | 0.00 | 84 | 1016.5 |
| 20260830212855 | 27 | 190 | 4.8 | 17.7 | 0.00 | 0.36 | 0.00 | 84 | 1016.5 |
| 20260830212324 | 28 | 191 | 4.8 | 11.3 | 0.00 | 0.36 | 0.00 | 82 | 1016.6 |
| 20260830211824 | 28 | 183 | 4.8 | 16.1 | 0.00 | 0.36 | 0.00 | 82 | 1016.5 |
| 20260830210755 | 28 | 126 | 4.8 | 14.5 | 0.00 | 0.53 | 0.00 | 82 | 1016.5 |
| 20260830210502 | 28 | 109 | 4.8 | 14.5 | 0.00 | 0.64 | 0.00 | 81 | 1016.7 |
| 20260830210225 | 28 | 109 | 4.8 | 14.5 | 0.00 | 0.64 | 0.00 | 81 | 1016.7 |
| 20260830205724 | 28 | 104 | 6.4 | 14.5 | 0.00 | 0.76 | 0.00 | 83 | 1016.7 |
| 20260830205225 | 28 | 99 | 8.0 | 16.1 | 0.00 | 0.81 | 0.00 | 84 | 1016.8 |
| 20260830204724 | 28 | 114 | 4.8 | 16.1 | 0.00 | 0.84 | 0.00 | 83 | 1016.9 |
| 20260830203655 | 28 | 103 | 11.3 | 22.5 | 0.00 | 0.84 | 0.00 | 86 | 1016.7 |
| 20260830203154 | 28 | 102 | 12.9 | 22.5 | 0.00 | 0.84 | 0.00 | 85 | 1016.5 |
| 20260830202654 | 29 | 103 | 14.5 | 25.7 | 0.00 | 0.84 | 0.00 | 86 | 1016.6 |
| 20260830201554 | 29 | 101 | 16.1 | 27.4 | 0.00 | 0.84 | 0.00 | 86 | 1016.5 |
| 20260830201231 | 29 | 100 | 16.1 | 24.1 | 0.00 | 0.84 | 0.00 | 87 | 1016.5 |
| 20260830201055 | 29 | 100 | 16.1 | 24.1 | 0.00 | 0.84 | 0.00 | 87 | 1016.5 |
| 20260830200554 | 29 | 100 | 12.9 | 24.1 | 0.00 | 0.84 | 0.00 | 86 | 1016.4 |
| 20260830200318 | 29 | 101 | 14.5 | 30.6 | 0.00 | 0.84 | 0.00 | 85 | 1016.4 |
| 20260830200055 | 29 | 101 | 14.5 | 30.6 | 0.00 | 0.84 | 0.00 | 85 | 1016.4 |
| 20260830195524 | 29 | 100 | 19.3 | 30.6 | 0.00 | 0.84 | 0.00 | 85 | 1016.4 |
| 20260830194954 | 29 | 98 | 20.9 | 30.6 | 0.00 | 0.84 | 0.00 | 83 | 1016.5 |
| 20260830194214 | 30 | 99 | 17.7 | 29.0 | 0.00 | 0.84 | 0.00 | 82 | 1016.5 |
| 20260830193925 | 30 | 99 | 17.7 | 29.0 | 0.00 | 0.84 | 0.00 | 82 | 1016.5 |
| 20260830193719 | 31 | 99 | 14.5 | 32.2 | 0.00 | 0.84 | 0.00 | 79 | 1016.6 |
| 20260830193425 | 31 | 99 | 14.5 | 32.2 | 0.00 | 0.84 | 0.00 | 79 | 1016.6 |
| 20260830192355 | 32 | 98 | 12.9 | 43.5 | 0.00 | 0.84 | 0.00 | 75 | 1016.5 |
| 20260830192001 | 33 | 97 | 14.5 | 43.5 | 0.00 | 0.84 | 0.00 | 72 | 1016.4 |
| 20260830191825 | 33 | 97 | 14.5 | 43.5 | 0.00 | 0.84 | 0.00 | 72 | 1016.4 |
| 20260830190755 | 33 | 98 | 11.3 | 20.9 | 0.00 | 0.84 | 0.00 | 65 | 1016.5 |
| 20260830190544 | 33 | 101 | 6.4 | 16.1 | 0.00 | 0.84 | 0.00 | 71 | 1016.4 |
| 20260830190225 | 33 | 101 | 6.4 | 16.1 | 0.00 | 0.84 | 0.00 | 71 | 1016.4 |
| 20260830190013 | 33 | 98 | 6.4 | 19.3 | 0.00 | 0.84 | 0.00 | 70 | 1016.6 |
| 20260830185654 | 33 | 98 | 6.4 | 19.3 | 0.00 | 0.84 | 0.00 | 70 | 1016.6 |
| 20260830184655 | 33 | 91 | 8.0 | 19.3 | 0.00 | 0.84 | 0.00 | 70 | 1016.8 |
| 20260830182025 | 33 | 98 | 8.0 | 17.7 | 0.00 | 0.84 | 0.00 | 71 | 1017.0 |
| 20260830181524 | 33 | 101 | 8.0 | 14.5 | 0.00 | 0.84 | 0.00 | 70 | 1017.1 |
| 20260830180954 | 33 | 104 | 8.0 | 14.5 | 0.00 | 0.84 | 0.00 | 74 | 1017.2 |
| 20260830180830 | 32 | 98 | 8.0 | 14.5 | 0.00 | 0.84 | 0.00 | 74 | 1017.3 |
| 20260830180455 | 32 | 98 | 8.0 | 14.5 | 0.00 | 0.84 | 0.00 | 74 | 1017.3 |
| 20260830175925 | 32 | 89 | 6.4 | 14.5 | 0.00 | 0.84 | 0.00 | 74 | 1017.2 |
| 20260830175847 | 25 | 32 | 1.6 | 4.8 | 0.15 | 0.15 | 0.15 | 94 | 1017.6 |
| 20260830175354 | 32 | 93 | 8.0 | 14.5 | 0.00 | 0.84 | 0.00 | 72 | 1017.3 |
| 20260830174854 | 32 | 89 | 6.4 | 14.5 | 0.00 | 0.84 | 0.00 | 72 | 1017.3 |
| 20260830173824 | 32 | 97 | 9.7 | 16.1 | 0.00 | 0.84 | 0.00 | 73 | 1017.5 |
| 20260830173627 | 32 | 91 | 9.7 | 16.1 | 0.00 | 0.84 | 0.00 | 73 | 1017.6 |
| 20260830173255 | 32 | 91 | 9.7 | 16.1 | 0.00 | 0.84 | 0.00 | 73 | 1017.6 |
| 20260830172755 | 32 | 92 | 9.7 | 17.7 | 0.00 | 0.84 | 0.00 | 72 | 1017.8 |
| 20260830172224 | 32 | 96 | 9.7 | 17.7 | 0.00 | 0.84 | 0.00 | 75 | 1017.8 |
| 20260830170655 | 32 | 92 | 8.0 | 17.7 | 0.00 | 0.84 | 0.00 | 78 | 1018.0 |
| 20260830170155 | 32 | 87 | 6.4 | 17.7 | 0.00 | 0.84 | 0.00 | 77 | 1018.1 |
| 20260830165054 | 32 | 90 | 4.8 | 12.9 | 0.00 | 0.84 | 0.00 | 78 | 1018.2 |
| 20260830164555 | 31 | 89 | 4.8 | 12.9 | 0.00 | 0.84 | 0.00 | 75 | 1018.3 |
| 20260830163455 | 31 | 90 | 4.8 | 11.3 | 0.00 | 0.84 | 0.00 | 77 | 1018.3 |
| 20260830162924 | 31 | 92 | 4.8 | 11.3 | 0.00 | 0.84 | 0.00 | 76 | 1018.3 |
| 20260830162354 | 31 | 98 | 4.8 | 12.9 | 0.00 | 0.84 | 0.00 | 77 | 1018.3 |
| 20260830161855 | 31 | 99 | 3.2 | 12.9 | 0.00 | 0.84 | 0.00 | 82 | 1018.2 |
| 20260830161324 | 31 | 93 | 6.4 | 14.5 | 0.00 | 0.84 | 0.00 | 79 | 1018.3 |
| 20260830160824 | 31 | 94 | 6.4 | 14.5 | 0.00 | 0.84 | 0.00 | 81 | 1018.3 |
| 20260830160325 | 31 | 97 | 4.8 | 14.5 | 0.00 | 0.84 | 0.00 | 81 | 1018.4 |
| 20260830160142 | 31 | 95 | 3.2 | 11.3 | 0.00 | 0.84 | 0.00 | 79 | 1018.5 |
| 20260830155824 | 31 | 95 | 3.2 | 11.3 | 0.00 | 0.84 | 0.00 | 79 | 1018.5 |
| 20260830155255 | 31 | 94 | 4.8 | 14.5 | 0.00 | 0.84 | 0.00 | 80 | 1018.5 |
| 20260830155137 | 31 | 92 | 4.8 | 14.5 | 0.00 | 0.84 | 0.00 | 79 | 1018.5 |
| 20260830154754 | 31 | 92 | 4.8 | 14.5 | 0.00 | 0.84 | 0.00 | 79 | 1018.5 |
| 20260830153654 | 31 | 99 | 4.8 | 11.3 | 0.00 | 0.84 | 0.00 | 81 | 1018.6 |
| 20260830152554 | 30 | 97 | 3.2 | 6.4 | 0.00 | 0.84 | 0.00 | 83 | 1018.8 |
| 20260830151554 | 30 | 93 | 3.2 | 9.7 | 0.00 | 0.84 | 0.00 | 85 | 1018.8 |
| 20260830150525 | 30 | 96 | 4.8 | 9.7 | 0.00 | 0.84 | 0.00 | 89 | 1018.9 |
| 20260830145955 | 29 | 96 | 3.2 | 11.3 | 0.00 | 0.84 | 0.00 | 89 | 1019.0 |
| 20260830145424 | 29 | 95 | 3.2 | 11.3 | 0.00 | 0.84 | 0.00 | 89 | 1019.0 |
| 20260830144924 | 28 | 92 | 3.2 | 9.7 | 0.00 | 0.84 | 0.00 | 91 | 1018.9 |
| 20260830144356 | 28 | 91 | 4.8 | 9.7 | 0.00 | 0.84 | 0.00 | 93 | 1018.9 |
| 20260830143824 | 27 | 93 | 3.2 | 11.3 | 0.00 | 0.84 | 0.00 | 93 | 1018.9 |
| 20260830143708 | 27 | 95 | 1.6 | 11.3 | 0.00 | 0.84 | 0.00 | 94 | 1018.9 |
| 20260830143325 | 27 | 95 | 1.6 | 11.3 | 0.00 | 0.84 | 0.00 | 94 | 1018.9 |
| 20260830141724 | 27 | 77 | 3.2 | 6.4 | 0.00 | 0.84 | 0.00 | 95 | 1019.0 |
| 20260830141100 | 26 | 50 | 1.6 | 4.8 | 0.00 | 0.84 | 0.00 | 97 | 1019.0 |
| 20260830140654 | 26 | 50 | 1.6 | 4.8 | 0.00 | 0.84 | 0.00 | 97 | 1019.0 |
| 20260830135233 | 26 | 42 | 1.6 | 4.8 | 0.00 | 0.84 | 0.00 | 98 | 1019.0 |
| 20260830135055 | 26 | 42 | 1.6 | 4.8 | 0.00 | 0.84 | 0.00 | 98 | 1019.0 |
| 20260830134555 | 26 | 37 | 1.6 | 4.8 | 0.00 | 0.84 | 0.00 | 98 | 1019.0 |
| 20260830134024 | 25 | 24 | 1.6 | 4.8 | 0.00 | 0.84 | 0.00 | 98 | 1018.9 |
| 20260830133454 | 25 | 25 | 1.6 | 4.8 | 0.00 | 0.84 | 0.00 | 99 | 1018.8 |
| 20260830132955 | 25 | 26 | 1.6 | 4.8 | 0.00 | 0.84 | 0.00 | 100 | 1018.8 |
| 20260830132424 | 25 | 12 | 1.6 | 4.8 | 0.00 | 0.84 | 0.00 | 100 | 1018.8 |
| 20260830131720 | 25 | 34 | 1.6 | 4.8 | 0.00 | 0.84 | 0.00 | 100 | 1018.8 |
| 20260830131354 | 25 | 34 | 1.6 | 4.8 | 0.00 | 0.84 | 0.00 | 100 | 1018.8 |
| 20260830125724 | 25 | 78 | 0.0 | 3.2 | 0.00 | 0.84 | 0.00 | 100 | 1018.8 |
| 20260830125155 | 24 | 78 | 0.0 | 3.2 | 0.00 | 0.84 | 0.00 | 100 | 1018.7 |
| 20260830124055 | 24 | 78 | 0.0 | 1.6 | 0.00 | 0.84 | 0.00 | 100 | 1018.8 |
| 20260830123554 | 24 | 78 | 0.0 | 1.6 | 0.00 | 0.84 | 0.00 | 100 | 1018.7 |
| 20260830121720 | 24 | 78 | 0.0 | 1.6 | 0.00 | 0.84 | 0.00 | 100 | 1018.4 |
| 20260830121425 | 24 | 78 | 0.0 | 1.6 | 0.00 | 0.84 | 0.00 | 100 | 1018.4 |
| 20260830121207 | 24 | 78 | 0.0 | 1.6 | 0.00 | 0.84 | 0.00 | 100 | 1018.3 |
| 20260830120925 | 24 | 78 | 0.0 | 1.6 | 0.00 | 0.84 | 0.00 | 100 | 1018.3 |
| 20260830120637 | 24 | 78 | 0.0 | 1.6 | 0.00 | 0.84 | 0.00 | 100 | 1018.3 |
| 20260830120355 | 24 | 78 | 0.0 | 1.6 | 0.00 | 0.84 | 0.00 | 100 | 1018.3 |
| 20260830120149 | 23 | 80 | 0.0 | 1.6 | 0.00 | 0.84 | 0.00 | 100 | 1018.1 |
| 20260830115824 | 23 | 80 | 0.0 | 1.6 | 0.00 | 0.84 | 0.00 | 100 | 1018.1 |
| 20260830115255 | 23 | 80 | 0.0 | 1.6 | 0.00 | 0.84 | 0.00 | 100 | 1018.0 |
| 20260830114755 | 23 | 80 | 1.6 | 1.6 | 0.00 | 0.84 | 0.00 | 100 | 1018.0 |
| 20260830114501 | 23 | 80 | 1.6 | 1.6 | 0.00 | 0.84 | 0.00 | 100 | 1017.9 |
| 20260830114224 | 23 | 80 | 1.6 | 1.6 | 0.00 | 0.84 | 0.00 | 100 | 1017.9 |
| 20260830113337 | 23 | 80 | 1.6 | 3.2 | 0.00 | 0.84 | 0.00 | 100 | 1017.8 |
| 20260830113154 | 23 | 80 | 1.6 | 3.2 | 0.00 | 0.84 | 0.00 | 100 | 1017.8 |
| 20260830105554 | 23 | 80 | 0.0 | 1.6 | 0.00 | 0.84 | 0.00 | 100 | 1017.2 |
| 20260830105054 | 23 | 80 | 1.6 | 3.2 | 0.00 | 0.84 | 0.00 | 100 | 1017.1 |
| 20260830103955 | 24 | 79 | 1.6 | 4.8 | 0.00 | 0.84 | 0.00 | 100 | 1017.1 |
| 20260830102924 | 24 | 82 | 3.2 | 6.4 | 0.00 | 0.84 | 0.00 | 100 | 1017.1 |
| 20260830102355 | 24 | 82 | 3.2 | 6.4 | 0.00 | 0.84 | 0.00 | 100 | 1017.0 |
| 20260830101855 | 23 | 86 | 3.2 | 9.7 | 0.00 | 0.84 | 0.00 | 100 | 1016.9 |
| 20260830101600 | 23 | 88 | 3.2 | 9.7 | 0.00 | 0.84 | 0.00 | 100 | 1016.9 |
| 20260830101355 | 23 | 88 | 3.2 | 9.7 | 0.00 | 0.84 | 0.00 | 100 | 1016.9 |
| 20260830101052 | 23 | 82 | 1.6 | 6.4 | 0.00 | 0.84 | 0.00 | 100 | 1016.9 |
| 20260830100825 | 23 | 82 | 1.6 | 6.4 | 0.00 | 0.84 | 0.00 | 100 | 1016.9 |
| 20260830100324 | 23 | 85 | 1.6 | 4.8 | 0.00 | 0.84 | 0.00 | 100 | 1016.9 |
| 20260830095540 | 23 | 82 | 1.6 | 4.8 | 0.00 | 0.84 | 0.00 | 100 | 1016.7 |
| 20260830095225 | 23 | 82 | 1.6 | 4.8 | 0.00 | 0.84 | 0.00 | 100 | 1016.7 |
| 20260830094445 | 23 | 77 | 1.6 | 3.2 | 0.00 | 0.84 | 0.00 | 100 | 1016.8 |
| 20260830094156 | 23 | 77 | 1.6 | 3.2 | 0.00 | 0.84 | 0.00 | 100 | 1016.8 |
| 20260830093026 | 33 | 227 | 4.8 | 12.9 | 0.00 | 1.22 | 0.00 | 65 | 1016.9 |
| 20260830092554 | 23 | 84 | 1.6 | 4.8 | 0.00 | 0.84 | 0.00 | 100 | 1016.8 |
| 20260830092319 | 23 | 91 | 1.6 | 3.2 | 0.00 | 0.84 | 0.00 | 100 | 1016.6 |
| 20260830092055 | 23 | 91 | 1.6 | 3.2 | 0.00 | 0.84 | 0.00 | 100 | 1016.6 |
| 20260830091733 | 23 | 100 | 0.0 | 3.2 | 0.00 | 0.84 | 0.00 | 100 | 1016.7 |
| 20260830091554 | 23 | 100 | 0.0 | 3.2 | 0.00 | 0.84 | 0.00 | 100 | 1016.7 |
| 20260830091055 | 23 | 0 | 0.0 | 0.0 | 0.00 | 0.84 | 0.00 | 100 | 1016.6 |
| 20260830090524 | 23 | 100 | 0.0 | 1.6 | 0.00 | 0.84 | 0.00 | 100 | 1016.7 |
| 20260830085425 | 23 | 100 | 0.0 | 1.6 | 0.00 | 0.84 | 0.00 | 100 | 1016.7 |
| 20260830085138 | 23 | 100 | 1.6 | 1.6 | 0.00 | 0.84 | 0.00 | 100 | 1016.8 |
| 20260830084856 | 23 | 100 | 1.6 | 1.6 | 0.00 | 0.84 | 0.00 | 100 | 1016.8 |
| 20260830084711 | 23 | 91 | 1.6 | 3.2 | 0.00 | 0.84 | 0.00 | 100 | 1016.8 |
| 20260830084354 | 23 | 91 | 1.6 | 3.2 | 0.00 | 0.84 | 0.00 | 100 | 1016.8 |
| 20260830084155 | 23 | 70 | 1.6 | 4.8 | 0.00 | 0.84 | 0.00 | 100 | 1016.8 |
| 20260830083855 | 23 | 70 | 1.6 | 4.8 | 0.00 | 0.84 | 0.00 | 100 | 1016.8 |
| 20260830083541 | 23 | 34 | 0.0 | 4.8 | 0.00 | 0.84 | 0.00 | 100 | 1016.9 |
| 20260830083325 | 23 | 34 | 0.0 | 4.8 | 0.00 | 0.84 | 0.00 | 100 | 1016.9 |
| 20260830082755 | 23 | 1 | 0.0 | 1.6 | 0.00 | 0.84 | 0.00 | 100 | 1016.9 |
| 20260830082523 | 23 | 344 | 0.0 | 1.6 | 0.00 | 0.84 | 0.00 | 100 | 1017.0 |
| 20260830082224 | 23 | 344 | 0.0 | 1.6 | 0.00 | 0.84 | 0.00 | 100 | 1017.0 |
| 20260830081654 | 23 | 344 | 0.0 | 1.6 | 0.00 | 0.84 | 0.00 | 100 | 1017.1 |